Location: Unspecified
(51.5147°N, 7.4673°E)
Time: 02:40:17
(UTC+01:00)

A-11 Canister half - Pass Details

Date: 21 February 2026
Orbit: 1512 x 1687 km, 47.2° (Epoch: 8 March)

Event Time Altitude Azimuth Distance (km) Brightness Sun altitude
Rises 00:48:54 0° 275° (W) 4,925 11.7 -49.1°
Enters shadow 00:50:03 - 275° (W) 4,565 11.5 -49.1°
Reaches altitude 10° 00:52:08 10° 273° (W) 3,922 - -49.1°
Maximum altitude 01:01:58 63° 196° (SSW) 1,783 - -48.9°
Drops below altitude 10° 01:11:26 10° 118° (ESE) 3,787 - -48.7°
Sets 01:14:30 0° 115° (ESE) 4,747 - -48.6°
